星链-4254 (STARLINK-4254 )

导读 | 豆包AI

STARLINK-4254是美国太空探索技术公司星链互联网卫星星座中的一员,于2022年7月7日发射升空。星链项目旨在为全球提供高速低延迟互联网覆盖,该卫星入轨后,进一步扩充了星链星座的规模,助力系统实现更稳定的全球联网服务,推动全球卫星互联网布局的完善。

基本信息
目录编号:
52998
目录名称:
STARLINK-4254
国际标识:
2022-076N
轨道中心:
EARTH
卫星名称:
星链-4254
卫星全名:
星链-4254 (STARLINK-4254 )
卫星状态:
在轨 (已飞行1347 天)
发射日期:
2022-07-07 UTC
国别 :
美国 (US)
星等 :
--
轨道信息
数据来源 国际轨道数据
星历时间: 2026-03-14T17:14:30+0800
16小时前
查看轨道信息
半长轴: 6917.884km
偏心率: 0.0001328
轨道倾角: 53.217°
近地点辐角 88.557°
升交点赤经 72.955°
平近点角 271.557°
近地点: 538.828km
远地点: 540.666km
周期: 95.438分钟
每日圈数: 15.088389
详细信息
固有亮度:
5
最大亮度:
2.5
卫星平台:
Starlink v1.5
覆盖范围:
全球
运营商:
太空探索技术公司
运营商所在国:
美国
制造商(研发单位):
太空探索技术公司
制造商所在国:
美国
使用方式:
暂无
卫星简介
星链(Starlink)计划是由太空探索技术公司(SpaceX)提出的一个巨型低轨卫星互联网星座项目,计划在2019年至2024年间在太空搭建由约1.2万颗卫星组成的“星链”网络,其中1584颗将部署在地球上空550千米处的近地轨道,并从2020年开始工作。该卫星仍在工作。
2D轨道图
3D轨道图
轨道高度分析图
轨道倾角分析图
轨道综合分析图
查看轨道综合分析图